Terminal Aerodrome Forecast
Issued by NWS Austin/San Antonio, TX

Home | Current Version | Previous Version | Text Only | Print | Product List | Glossary On
Versions: 1 2 3 4 5 6 7 8 9 10 11 12 13 14 15 16
166
FTUS44 KEWX 030536
TAFAUS
TAF
KAUS 030536Z 0306/0412 04010KT 6SM -RA OVC015
     FM030700 04011KT 4SM -RA BR OVC012
     FM030900 03012KT 2SM SHRA OVC006
     FM032000 01012KT 5SM -RA OVC010
     FM041000 36010KT 2SM SHRA OVC005=

USA.gov is the U.S. government's official web portal to all federal, state and local government web resources and services.